COSMOS 2251 DEB, 36366

Orbit data source: Space-Track

COSMOS 2251 DEB, 36366 is space debris in LEO originally from a launch on Wed, 16 Jun 1993 UTC launched from the Plesetsk Missile And Space Complex (PKMTR). The debris from Iridium 33, an American commercial communications satellite, has been tracked extensively since its accidental collision with the defunct Russian satellite Cosmos 2251 in 2009. This event, occurring at high speed in low Earth orbit (LEO), generated thousands of pieces of space debris, significantly increasing the risk of further collisions. The Iridium 33 debris cloud has impacted space traffic management and orbital debris mitigation strategies, making it a subject of ongoing study in space situational awareness.

Loading next visibility...
Identifier
36366, 1993-036AYT
Orbit
LEO
Country
Flag of CISCIS
Related business
Manufacturer
Unknown
Mission
Spacecraft
Bus & Motor
Unknown
Mass
Unknown
Launch date (UTC)
1993-06-16 (33 years ago)
Launch vehicle
Unknown
Launch site
Plesetsk Missile And Space Complex (PKMTR)
Object type
Payload
Rocket body
Debris
Shape & HBR
Unknown shape, 0.1 m
Radar Cross Section
Small (<0.1 m²)

Expand to show TLE details & history
Last TLE update: 1 day ago

TLE from 1 day ago
0 COSMOS 2251 DEB
1 36366U 93036AYT 26037.04817426  .00010607  00000-0  36387-2 0  9998
2 36366  74.0663 172.0775 0087125 188.5438 171.4237 14.34074914870817
Epoch: 2026-02-06T01:09Z
TLE epoch observation values (Epoch: 2026-02-06T01:09:22.256Z)
Latitude
-0.00001°
Longitude
18.54312°
Altitude
842.427 km
Speed
7.4 km/s
True Right ascension
11h 28m 18s
True Declination
0° 00' 00"
Sunlit
Object was in full shadow at epoch
Visualization orbit readout
Latitude
Unknown
Longitude
Unknown
Altitude
Unknown
Speed
Unknown
Apparent Right ascension
Unknown
Apparent Declination
Unknown
Sunlit
N/A
Visualization observer readout
Local Sidereal Time
02:52:32
Azimuth
Unknown
Elevation
Unknown
Doppler factor
Unknown
Orbital elements
Apogee altitude
838.094 km
Perigee altitude
713.437 km
Semi-major axis
7,153.903 km
Eccentricity
0.00871
Inclination
74.0663°
RAAN
172.0775°
Arg. of periapsis
188.5438°
True anomaly
171.571°
Mean anomaly
171.4237°
Eccentric anomaly
171.49751°
Mean motion
3.58698 °/min
Orbital period
100.36 mins
BSTAR
0.0036387

Documentation

Showing up to 5 results
|